Location: Brede
(50.9167°N, 0.6000°E)
Time: 17:04:51
(UTC+00:00)

FALCON 9 DEB - Pass Details

Date: 08 August 2020
Orbit: 427 x 441 km, 53.0° (Epoch: 22 September)

Event Time Altitude Azimuth Distance (km) Brightness Sun altitude
Exits shadow 02:42:24 - 289° (WNW) 2,178 6.5 -14.6°
Reaches altitude 10° 02:43:56 10° 285° (WNW) 1,559 5.7 -14.4°
Maximum altitude 02:47:20 50° 209° (SSW) 569 3.3 -14.1°
Drops below altitude 10° 02:50:43 10° 133° (SE) 1,545 5.9 -13.7°
Sets 02:52:51 0° 128° (SE) 2,409 7.0 -13.5°
